Home > Weather > Neuruppin > Past weeks

Flag for Germany Past Weather in Neuruppin, Brandenburg, Germany — Yesterday and Last 2 Weeks

Now
81 °F

Partly sunny.


Feels Like: 81 °F
Forecast: 60 / 74 °F
Wind: 9 mph from Northwest

Location: Berlin-Tegel

Current Time: Jul 26, 2016 at 2:14:28 PM

Latest Report: Jul 26, 2016 at 1:20 PM


Visibility: N/A

Pressure: 30.09 "Hg

Humidity: 48%

Dew Point: 59 °F

Location of NeuruppinLocation

Past Weather in Neuruppin — Graph

°F

Neuruppin Temperature Yesterday

Maximum temperature yesterday: 88 °F (at 2:20 PM)
Minimum temperature yesterday: 66 °F (at 2:50 AM)
Average temperature yesterday: 77 °F

High & Low Weather Summary for the Past Weeks

 TemperatureHumidityPressure
High88 °F (Jul 25, 2:20 PM)94% (Jul 13, 11:20 AM)30.24 "Hg (Jul 13, 11:20 AM)
Low48 °F (Jul 16, 5:20 AM)13% (Jul 22, 2:50 PM)29.74 "Hg (Jul 11, 4:20 PM)
Average69 °F61%30.03 "Hg
* Reported Jul 11 1:20 PM — Jul 26 1:20 PM, Neuruppin, Weather by CustomWeather, © 2016

Note: Actual official high and low records may vary slightly from our data, if they occured in-between our weather recording intervals... More about our weather records

Advertising

Neuruppin Weather History for the Previous 24 Hours

Scroll right to see more
 ConditionsComfort  
Time TempWeatherWind HumidityBarometerVisibility
1:20 PM
Tue, Jul 26
81 °FPartly sunny.9 mph48%30.09 "HgN/A
12:20 PM77 °FPartly sunny.9 mph54%30.09 "HgN/A
11:50 AM77 °FPartly sunny.12 mph61%30.09 "HgN/A
11:20 AM77 °FBroken clouds.12 mph61%30.09 "HgN/A
10:50 AM77 °FBroken clouds.9 mph57%30.09 "HgN/A
10:20 AM75 °FBroken clouds.9 mph61%30.09 "HgN/A
9:50 AM75 °FPassing clouds.9 mph65%30.07 "HgN/A
9:20 AM73 °FPassing clouds.7 mph69%30.07 "HgN/A
8:50 AM73 °FPassing clouds.5 mph69%30.07 "HgN/A
8:20 AM72 °FPassing clouds.6 mph73%30.07 "HgN/A
7:50 AM70 °FPassing clouds.5 mph78%30.07 "HgN/A
7:20 AM68 °FPassing clouds.6 mph83%30.07 "HgN/A
6:50 AM68 °FPassing clouds.3 mph83%30.07 "HgN/A
6:20 AM66 °FPassing clouds.5 mph88%30.07 "HgN/A
5:50 AM64 °FPassing clouds.3 mph88%30.04 "HgN/A
5:20 AM66 °FClear.1 mph83%30.04 "Hg10 mi
4:50 AM66 °FPassing clouds.3 mph83%30.04 "HgN/A
4:20 AM66 °FClear.3 mph83%30.04 "Hg10 mi
3:50 AM66 °FClear.3 mph83%30.04 "Hg10 mi
3:20 AM68 °FClear.2 mph78%30.04 "Hg10 mi
2:50 AM66 °FClear.3 mph83%30.04 "Hg10 mi
2:20 AM66 °FClear.1 mph83%30.04 "Hg10 mi
1:50 AM68 °FClear.2 mph78%30.04 "Hg10 mi
1:20 AM72 °FClear.1 mph69%30.04 "Hg10 mi
12:50 AM72 °FClear.2 mph69%30.04 "Hg10 mi
12:20 AM73 °FPassing clouds.5 mph65%30.04 "HgN/A
11:50 PM
Mon, Jul 25
73 °FPassing clouds.5 mph61%30.04 "HgN/A
11:20 PM73 °FPassing clouds.7 mph65%30.04 "HgN/A
10:50 PM75 °FClear.2 mph57%30.04 "Hg10 mi
10:20 PM75 °FClear.2 mph57%30.04 "Hg10 mi
9:50 PM77 °FSunny.No wind51%30.04 "Hg10 mi
9:20 PM79 °FSunny.1 mph48%30.01 "Hg10 mi
8:50 PM81 °FSunny.1 mph42%30.01 "Hg10 mi
8:20 PM82 °FSunny.2 mph40%30.01 "Hg10 mi
7:50 PM82 °FPassing clouds.3 mph40%30.01 "HgN/A
7:20 PM84 °FPassing clouds.5 mph37%30.01 "HgN/A
6:50 PM84 °FPassing clouds.6 mph37%30.01 "HgN/A
6:20 PM82 °FPassing clouds.6 mph42%30.01 "HgN/A
5:50 PM82 °FPartly sunny.8 mph42%30.01 "HgN/A
5:20 PM82 °FBroken clouds.8 mph42%30.01 "HgN/A
4:50 PM82 °FPartly sunny.10 mph40%30.01 "HgN/A
4:20 PM86 °FBroken clouds.6 mph31%30.01 "HgN/A
3:50 PM88 °FSunny.3 mph29%30.01 "Hg10 mi
3:20 PM86 °FPassing clouds.6 mph31%30.01 "HgN/A
2:50 PM86 °FSunny.3 mph31%30.01 "Hg10 mi
2:20 PM88 °FSunny.6 mph31%30.01 "Hg10 mi
Weather by CustomWeather, © 2016

See weather overviewHow to use our weather pages